TimePST,TemperatureF,Dew PointF,Humidity,Sea Level PressureIn,VisibilityMPH,Wind Direction,Wind SpeedMPH,Gust SpeedMPH,PrecipitationIn,Events,Conditions,WindDirDegrees,DateUTC
12:15 AM,37.4,23.0,56,30.24,10.0,ESE,3.5,-,N/A,,Clear,110,2012-12-04 08:15:00
12:35 AM,35.6,23.0,60,30.23,10.0,ESE,8.1,-,N/A,,Clear,120,2012-12-04 08:35:00
12:55 AM,35.6,21.2,56,30.23,10.0,ESE,5.8,-,N/A,,Clear,120,2012-12-04 08:55:00
1:15 AM,35.6,23.0,60,30.23,10.0,Calm,Calm,-,N/A,,Clear,0,2012-12-04 09:15:00
1:35 AM,37.4,21.2,52,30.23,10.0,ESE,3.5,-,N/A,,Clear,120,2012-12-04 09:35:00
1:55 AM,35.6,23.0,60,30.23,10.0,Calm,Calm,-,N/A,,Clear,0,2012-12-04 09:55:00
2:15 AM,37.4,21.2,52,30.23,10.0,ESE,5.8,-,N/A,,Clear,120,2012-12-04 10:15:00
2:35 AM,37.4,21.2,52,30.24,10.0,SE,8.1,-,N/A,,Clear,130,2012-12-04 10:35:00
2:55 AM,35.6,23.0,60,30.24,10.0,SSE,3.5,-,N/A,,Clear,150,2012-12-04 10:55:00
3:15 AM,33.8,23.0,65,30.26,10.0,Calm,Calm,-,N/A,,Clear,0,2012-12-04 11:15:00
3:35 AM,32.0,23.0,69,30.26,10.0,Calm,Calm,-,N/A,,Clear,0,2012-12-04 11:35:00
3:55 AM,35.6,21.2,56,30.26,10.0,ESE,4.6,-,N/A,,Clear,110,2012-12-04 11:55:00
4:15 AM,35.6,23.0,60,30.25,10.0,SE,10.4,-,N/A,,Clear,130,2012-12-04 12:15:00
4:35 AM,37.4,21.2,52,30.25,10.0,SE,10.4,-,N/A,,Clear,130,2012-12-04 12:35:00
4:55 AM,37.4,21.2,52,30.25,10.0,SE,12.7,-,N/A,,Clear,130,2012-12-04 12:55:00
5:15 AM,37.4,23.0,56,30.25,10.0,SE,10.4,-,N/A,,Clear,130,2012-12-04 13:15:00
5:35 AM,37.4,23.0,56,30.26,10.0,ESE,9.2,-,N/A,,Clear,120,2012-12-04 13:35:00
5:55 AM,35.6,23.0,60,30.27,10.0,SE,6.9,-,N/A,,Clear,130,2012-12-04 13:55:00
6:15 AM,35.6,24.8,65,30.27,10.0,SE,9.2,-,N/A,,Clear,130,2012-12-04 14:15:00
6:35 AM,37.4,23.0,56,30.26,10.0,SE,11.5,-,N/A,,Clear,130,2012-12-04 14:35:00
6:55 AM,35.6,23.0,60,30.28,10.0,SE,3.5,-,N/A,,Clear,130,2012-12-04 14:55:00
7:15 AM,37.4,23.0,56,30.29,10.0,ESE,4.6,-,N/A,,Clear,120,2012-12-04 15:15:00
7:35 AM,37.4,24.8,60,30.29,10.0,Calm,Calm,-,N/A,,Clear,0,2012-12-04 15:35:00
7:55 AM,39.2,26.6,61,30.30,10.0,East,3.5,-,N/A,,Clear,90,2012-12-04 15:55:00
8:15 AM,46.4,32.0,57,30.30,10.0,ESE,5.8,-,N/A,,Clear,120,2012-12-04 16:15:00
8:35 AM,48.2,32.0,54,30.32,10.0,SE,5.8,-,N/A,,Clear,140,2012-12-04 16:35:00
8:55 AM,50.0,35.6,58,30.32,10.0,ESE,6.9,-,N/A,,Clear,120,2012-12-04 16:55:00
9:15 AM,53.6,37.4,54,30.32,10.0,ESE,10.4,-,N/A,,Clear,110,2012-12-04 17:15:00
9:35 AM,55.4,39.2,54,30.32,10.0,ESE,10.4,-,N/A,,Clear,120,2012-12-04 17:35:00
9:55 AM,55.4,39.2,54,30.32,10.0,ESE,9.2,-,N/A,,Clear,120,2012-12-04 17:55:00
10:15 AM,57.2,39.2,51,30.32,9.0,ESE,10.4,-,N/A,,Clear,120,2012-12-04 18:15:00
10:35 AM,59.0,37.4,45,30.31,10.0,East,8.1,-,N/A,,Clear,100,2012-12-04 18:35:00
10:55 AM,59.0,37.4,45,30.31,10.0,ESE,10.4,-,N/A,,Clear,110,2012-12-04 18:55:00
11:15 AM,59.0,37.4,45,30.31,10.0,East,8.1,-,N/A,,Clear,100,2012-12-04 19:15:00
11:35 AM,59.0,37.4,45,30.30,10.0,ESE,12.7,-,N/A,,Clear,110,2012-12-04 19:35:00
11:55 AM,59.0,37.4,45,30.29,10.0,ESE,11.5,-,N/A,,Clear,110,2012-12-04 19:55:00
12:15 PM,59.0,37.4,45,30.29,10.0,ESE,10.4,-,N/A,,Clear,110,2012-12-04 20:15:00
12:35 PM,60.8,37.4,42,30.28,10.0,East,11.5,-,N/A,,Clear,100,2012-12-04 20:35:00
12:55 PM,59.0,35.6,42,30.27,10.0,ESE,8.1,-,N/A,,Clear,110,2012-12-04 20:55:00
1:15 PM,60.8,35.6,39,30.26,10.0,East,9.2,-,N/A,,Clear,100,2012-12-04 21:15:00
1:35 PM,60.8,35.6,39,30.26,10.0,ESE,8.1,-,N/A,,Clear,110,2012-12-04 21:35:00
1:55 PM,60.8,33.8,36,30.25,10.0,ESE,8.1,-,N/A,,Clear,110,2012-12-04 21:55:00
2:15 PM,60.8,33.8,36,30.25,10.0,ESE,8.1,-,N/A,,Clear,110,2012-12-04 22:15:00
2:35 PM,60.8,35.6,39,30.25,10.0,East,9.2,-,N/A,,Clear,90,2012-12-04 22:35:00
2:55 PM,60.8,33.8,36,30.26,10.0,ESE,8.1,-,N/A,,Clear,120,2012-12-04 22:55:00
3:15 PM,59.0,35.6,42,30.26,10.0,East,6.9,-,N/A,,Clear,100,2012-12-04 23:15:00
3:35 PM,59.0,35.6,42,30.26,10.0,ESE,5.8,-,N/A,,Clear,120,2012-12-04 23:35:00
3:55 PM,57.2,35.6,44,30.26,10.0,East,4.6,-,N/A,,Clear,100,2012-12-04 23:55:00
4:15 PM,55.4,35.6,47,30.26,10.0,ESE,4.6,-,N/A,,Clear,120,2012-12-05 00:15:00
4:35 PM,53.6,37.4,54,30.26,10.0,ESE,5.8,-,N/A,,Clear,120,2012-12-05 00:35:00
4:55 PM,50.0,37.4,62,30.26,10.0,Calm,Calm,-,N/A,,Clear,0,2012-12-05 00:55:00
5:15 PM,50.0,37.4,62,30.26,10.0,SE,5.8,-,N/A,,Clear,130,2012-12-05 01:15:00
5:35 PM,44.6,35.6,71,30.26,10.0,Calm,Calm,-,N/A,,Clear,0,2012-12-05 01:35:00
5:55 PM,46.4,35.6,66,30.26,10.0,East,3.5,-,N/A,,Clear,90,2012-12-05 01:55:00
6:15 PM,44.6,35.6,71,30.26,10.0,ESE,4.6,-,N/A,,Clear,110,2012-12-05 02:15:00
6:35 PM,42.8,35.6,76,30.26,10.0,East,3.5,-,N/A,,Clear,100,2012-12-05 02:35:00
6:55 PM,42.8,33.8,70,30.27,10.0,Calm,Calm,-,N/A,,Clear,0,2012-12-05 02:55:00
7:15 PM,41.0,32.0,70,30.27,10.0,Calm,Calm,-,N/A,,Clear,0,2012-12-05 03:15:00
7:35 PM,39.2,32.0,75,30.28,10.0,East,3.5,-,N/A,,Clear,90,2012-12-05 03:35:00
7:55 PM,37.4,32.0,81,30.28,10.0,Calm,Calm,-,N/A,,Clear,0,2012-12-05 03:55:00
8:15 PM,37.4,32.0,81,30.27,10.0,Calm,Calm,-,N/A,,Clear,0,2012-12-05 04:15:00
8:35 PM,35.6,32.0,87,30.27,10.0,Calm,Calm,-,N/A,,Clear,0,2012-12-05 04:35:00
8:55 PM,37.4,32.0,81,30.27,10.0,ESE,6.9,-,N/A,,Clear,120,2012-12-05 04:55:00
9:15 PM,37.4,32.0,81,30.28,10.0,Calm,Calm,-,N/A,,Clear,0,2012-12-05 05:15:00
9:35 PM,37.4,32.0,81,30.28,10.0,Calm,Calm,-,N/A,,Clear,0,2012-12-05 05:35:00
9:55 PM,37.4,32.0,81,30.28,10.0,Calm,Calm,-,N/A,,Clear,0,2012-12-05 05:55:00
10:15 PM,37.4,30.2,75,30.28,10.0,Calm,Calm,-,N/A,,Clear,0,2012-12-05 06:15:00
10:35 PM,35.6,30.2,81,30.27,10.0,NNE,3.5,-,N/A,,Clear,20,2012-12-05 06:35:00
10:55 PM,37.4,28.4,70,30.28,10.0,Calm,Calm,-,N/A,,Clear,0,2012-12-05 06:55:00
11:15 PM,35.6,30.2,81,30.27,10.0,Calm,Calm,-,N/A,,Clear,0,2012-12-05 07:15:00
11:35 PM,37.4,28.4,70,30.27,10.0,SE,4.6,-,N/A,,Clear,130,2012-12-05 07:35:00
11:55 PM,35.6,28.4,75,30.27,10.0,Calm,Calm,-,N/A,,Clear,0,2012-12-05 07:55:00